| time (UTC) | temp F | wind direction | speed knots | gust knots | rain 1hr in | rain 24hr in | rain mn in | humidity % | barometer mb |
| 20260504180606 | 57 | 285 | 1.7 | 4.3 | 0.00 | 0.00 | 0.00 | 57 | 1016.7 |
| 20260504175104 | 57 | 269 | 2.6 | 7.0 | 0.00 | 0.00 | 0.00 | 57 | 1016.5 |
| 20260504174604 | 57 | 273 | 2.6 | 7.8 | 0.00 | 0.00 | 0.00 | 55 | 1016.3 |
| 20260504174104 | 57 | 271 | 4.3 | 7.8 | 0.00 | 0.00 | 0.00 | 56 | 1016.3 |
| 20260504173603 | 57 | 318 | 4.3 | 7.0 | 0.00 | 0.00 | 0.00 | 58 | 1016.3 |
| 20260504172604 | 57 | 175 | 0.9 | 2.6 | 0.00 | 0.00 | 0.00 | 66 | 1016.2 |
| 20260504172104 | 56 | 279 | 0.0 | 2.6 | 0.00 | 0.00 | 0.00 | 67 | 1016.3 |
| 20260504171104 | 55 | 272 | 0.9 | 2.6 | 0.00 | 0.00 | 0.00 | 68 | 1016.2 |
| 20260504170605 | 55 | 263 | 0.9 | 2.6 | 0.00 | 0.00 | 0.00 | 69 | 1016.2 |
| 20260504170105 | 55 | 254 | 0.0 | 0.9 | 0.00 | 0.00 | 0.00 | 70 | 1016.2 |
| 20260504160104 | 54 | 305 | 1.7 | 2.6 | 0.00 | 0.00 | 0.00 | 72 | 1015.9 |
| 20260504151105 | 53 | 327 | 0.9 | 4.3 | 0.00 | 0.00 | 0.00 | 77 | 1015.6 |
| 20260504150603 | 52 | 288 | 0.0 | 1.7 | 0.00 | 0.00 | 0.00 | 79 | 1015.6 |
| 20260504150104 | 52 | 298 | 0.9 | 1.7 | 0.00 | 0.00 | 0.00 | 80 | 1015.7 |
| 20260504141104 | 51 | 306 | 0.0 | 1.7 | 0.00 | 0.00 | 0.00 | 84 | 1015.5 |
| 20260504140606 | 51 | 290 | 0.0 | 1.7 | 0.00 | 0.00 | 0.00 | 84 | 1015.5 |
| 20260504140104 | 51 | 280 | 0.0 | 0.9 | 0.00 | 0.00 | 0.00 | 85 | 1015.5 |
| 20260504130607 | 52 | 278 | 0.9 | 2.6 | 0.00 | 0.00 | 0.00 | 83 | 1015.1 |
| 20260504130104 | 52 | 263 | 0.9 | 1.7 | 0.00 | 0.00 | 0.00 | 83 | 1015.2 |
| 20260504120104 | 52 | 178 | 0.0 | 0.9 | 0.00 | 0.01 | 0.00 | 79 | 1014.7 |
| 20260504110604 | 52 | 218 | 0.0 | 0.9 | 0.00 | 0.01 | 0.00 | 78 | 1014.8 |
| 20260504110104 | 52 | 235 | 0.0 | 0.9 | 0.00 | 0.01 | 0.00 | 78 | 1014.8 |
| 20260504100607 | 53 | 184 | 0.0 | 0.9 | 0.00 | 0.01 | 0.00 | 76 | 1014.4 |
| 20260504100105 | 53 | 184 | 0.0 | 0.9 | 0.00 | 0.01 | 0.00 | 76 | 1014.4 |
| 20260504090104 | 54 | 184 | 0.0 | 0.9 | 0.00 | 0.01 | 0.00 | 76 | 1014.6 |
| 20260504081104 | 54 | 171 | 0.0 | 0.9 | 0.00 | 0.01 | 0.00 | 73 | 1015.7 |
| 20260504080606 | 54 | 171 | 0.0 | 0.9 | 0.00 | 0.01 | 0.00 | 73 | 1016.1 |
| 20260504080104 | 54 | 171 | 0.0 | 0.9 | 0.00 | 0.01 | 0.00 | 74 | 1016.3 |
| 20260504070104 | 54 | 194 | 0.0 | 1.7 | 0.00 | 0.01 | 0.00 | 75 | 1015.7 |
| 20260504060104 | 54 | 194 | 0.0 | 0.9 | 0.00 | 0.01 | 0.01 | 73 | 1014.6 |
| 20260504050605 | 55 | 184 | 0.0 | 0.9 | 0.00 | 0.01 | 0.01 | 70 | 1015.2 |
| 20260504050104 | 55 | 184 | 0.0 | 1.7 | 0.00 | 0.01 | 0.01 | 70 | 1015.2 |
| 20260504045604 | 55 | 184 | 0.0 | 1.7 | 0.00 | 0.01 | 0.01 | 70 | 1015.2 |
| 20260504045105 | 55 | 255 | 0.9 | 2.6 | 0.00 | 0.01 | 0.01 | 69 | 1015.2 |
| 20260504044104 | 55 | 140 | 0.9 | 2.6 | 0.00 | 0.01 | 0.01 | 69 | 1015.2 |
| 20260504043604 | 55 | 0 | 0.9 | 2.6 | 0.00 | 0.01 | 0.01 | 69 | 1015.2 |
| 20260504043104 | 55 | 215 | 0.9 | 2.6 | 0.00 | 0.01 | 0.01 | 68 | 1015.2 |
| 20260504042604 | 55 | 345 | 0.9 | 2.6 | 0.00 | 0.01 | 0.01 | 68 | 1015.2 |
| 20260504042104 | 55 | 239 | 0.0 | 1.7 | 0.00 | 0.01 | 0.01 | 68 | 1015.0 |
| 20260504041606 | 55 | 182 | 0.9 | 1.7 | 0.00 | 0.01 | 0.01 | 68 | 1015.2 |
| 20260504041104 | 55 | 165 | 0.0 | 1.7 | 0.00 | 0.01 | 0.01 | 68 | 1015.2 |
| 20260504035604 | 55 | 191 | 0.0 | 0.9 | 0.00 | 0.01 | 0.01 | 68 | 1014.9 |
| 20260504034604 | 56 | 178 | 0.9 | 1.7 | 0.00 | 0.01 | 0.01 | 68 | 1015.0 |
| 20260504034104 | 56 | 309 | 0.9 | 1.7 | 0.00 | 0.01 | 0.01 | 68 | 1014.8 |
| 20260504033604 | 56 | 300 | 0.0 | 1.7 | 0.00 | 0.01 | 0.01 | 68 | 1014.6 |
| 20260504033104 | 56 | 336 | 0.0 | 5.2 | 0.00 | 0.01 | 0.01 | 68 | 1014.5 |
| 20260504032604 | 56 | 329 | 0.9 | 5.2 | 0.00 | 0.01 | 0.01 | 67 | 1014.6 |
| 20260504032104 | 56 | 1 | 0.9 | 5.2 | 0.00 | 0.01 | 0.01 | 67 | 1014.6 |
| 20260504031105 | 56 | 311 | 0.9 | 1.7 | 0.00 | 0.01 | 0.01 | 67 | 1014.2 |
| 20260504030104 | 56 | 240 | 0.9 | 2.6 | 0.00 | 0.01 | 0.01 | 66 | 1013.9 |
| 20260504025604 | 56 | 324 | 0.9 | 4.3 | 0.00 | 0.01 | 0.01 | 66 | 1013.9 |
| 20260504024103 | 57 | 310 | 0.9 | 5.2 | 0.00 | 0.01 | 0.01 | 66 | 1013.8 |
| 20260504023104 | 57 | 3 | 1.7 | 7.0 | 0.00 | 0.01 | 0.01 | 65 | 1013.5 |
| 20260504022604 | 58 | 351 | 1.7 | 6.1 | 0.00 | 0.01 | 0.01 | 65 | 1013.3 |
| 20260504022105 | 58 | 0 | 1.7 | 6.1 | 0.00 | 0.01 | 0.01 | 64 | 1013.2 |
| 20260504020607 | 60 | 339 | 0.9 | 7.8 | 0.00 | 0.01 | 0.01 | 63 | 1012.7 |
| 20260504020104 | 60 | 321 | 2.6 | 7.8 | 0.00 | 0.01 | 0.01 | 62 | 1012.6 |
| 20260504015605 | 61 | 342 | 1.7 | 7.8 | 0.00 | 0.01 | 0.01 | 61 | 1012.5 |
| 20260504015104 | 61 | 355 | 1.7 | 10.4 | 0.00 | 0.01 | 0.01 | 61 | 1012.3 |
| 20260504014604 | 61 | 332 | 2.6 | 10.4 | 0.00 | 0.01 | 0.01 | 60 | 1012.5 |
| 20260504014104 | 62 | 356 | 1.7 | 10.4 | 0.00 | 0.01 | 0.01 | 60 | 1012.5 |
| 20260504013604 | 62 | 0 | 1.7 | 10.4 | 0.00 | 0.01 | 0.01 | 59 | 1012.2 |
| 20260504013104 | 62 | 339 | 2.6 | 10.4 | 0.00 | 0.01 | 0.01 | 58 | 1012.4 |
| 20260504012604 | 63 | 298 | 3.5 | 7.8 | 0.00 | 0.01 | 0.01 | 58 | 1012.4 |
| 20260504012104 | 63 | 295 | 4.3 | 8.7 | 0.00 | 0.01 | 0.01 | 57 | 1012.4 |
| 20260504011604 | 64 | 318 | 2.6 | 8.7 | 0.00 | 0.01 | 0.01 | 57 | 1012.3 |
| 20260504011104 | 64 | 290 | 4.3 | 8.7 | 0.00 | 0.01 | 0.01 | 56 | 1012.2 |
| 20260504010104 | 66 | 357 | 4.3 | 7.8 | 0.00 | 0.01 | 0.01 | 54 | 1012.0 |
| 20260504005603 | 66 | 343 | 5.2 | 8.7 | 0.00 | 0.01 | 0.01 | 54 | 1012.0 |
| 20260504005105 | 66 | 309 | 5.2 | 10.4 | 0.00 | 0.01 | 0.01 | 54 | 1012.0 |
| 20260504004604 | 66 | 280 | 6.1 | 10.4 | 0.00 | 0.01 | 0.01 | 53 | 1012.0 |
| 20260504004104 | 67 | 276 | 5.2 | 10.4 | 0.00 | 0.01 | 0.01 | 52 | 1011.9 |
| 20260504003604 | 67 | 296 | 6.1 | 10.4 | 0.00 | 0.01 | 0.01 | 55 | 1011.9 |
| 20260504002604 | 68 | 277 | 5.2 | 8.7 | 0.00 | 0.01 | 0.01 | 53 | 1011.5 |
| 20260504002104 | 68 | 263 | 4.3 | 7.0 | 0.00 | 0.01 | 0.01 | 54 | 1011.3 |
| 20260504001606 | 66 | 282 | 0.9 | 2.6 | 0.00 | 0.01 | 0.01 | 60 | 1011.4 |
| 20260504000607 | 66 | 281 | 0.9 | 2.6 | 0.00 | 0.01 | 0.01 | 61 | 1011.5 |
| 20260504000104 | 65 | 283 | 1.7 | 2.6 | 0.00 | 0.01 | 0.01 | 61 | 1011.4 |
| 20260503235604 | 65 | 180 | 1.7 | 2.6 | 0.00 | 0.01 | 0.01 | 61 | 1011.3 |
| 20260503234604 | 65 | 76 | 1.7 | 4.3 | 0.00 | 0.01 | 0.01 | 62 | 1011.7 |
| 20260503234104 | 65 | 51 | 0.9 | 2.6 | 0.00 | 0.01 | 0.01 | 65 | 1011.8 |
| 20260503233604 | 64 | 53 | 0.0 | 2.6 | 0.00 | 0.01 | 0.01 | 65 | 1011.7 |
| 20260503233103 | 64 | 52 | 0.0 | 4.3 | 0.00 | 0.01 | 0.01 | 67 | 1011.7 |
| 20260503232604 | 63 | 74 | 0.9 | 4.3 | 0.00 | 0.01 | 0.01 | 66 | 1011.8 |
| 20260503232104 | 64 | 68 | 0.9 | 4.3 | 0.00 | 0.01 | 0.01 | 67 | 1012.0 |
| 20260503231604 | 64 | 16 | 2.6 | 6.1 | 0.00 | 0.01 | 0.01 | 66 | 1012.2 |
| 20260503231104 | 64 | 56 | 0.9 | 6.1 | 0.00 | 0.01 | 0.01 | 66 | 1012.2 |
| 20260503230104 | 64 | 80 | 1.7 | 4.3 | 0.00 | 0.01 | 0.01 | 64 | 1012.1 |
| 20260503225604 | 64 | 121 | 0.9 | 2.6 | 0.00 | 0.01 | 0.01 | 64 | 1012.2 |
| 20260503225104 | 64 | 121 | 0.9 | 2.6 | 0.00 | 0.01 | 0.01 | 66 | 1012.2 |
| 20260503224604 | 64 | 136 | 0.9 | 2.6 | 0.00 | 0.01 | 0.01 | 66 | 1012.2 |
| 20260503224104 | 64 | 140 | 0.0 | 1.7 | 0.00 | 0.01 | 0.01 | 67 | 1012.3 |
| 20260503223604 | 63 | 140 | 0.0 | 1.7 | 0.00 | 0.01 | 0.01 | 69 | 1012.5 |
| 20260503223104 | 63 | 136 | 0.9 | 1.7 | 0.00 | 0.01 | 0.01 | 70 | 1012.6 |
| 20260503222604 | 62 | 150 | 0.0 | 2.6 | 0.00 | 0.01 | 0.01 | 72 | 1012.6 |
| 20260503222104 | 62 | 149 | 0.9 | 2.6 | 0.00 | 0.01 | 0.01 | 72 | 1012.7 |
| 20260503221606 | 61 | 282 | 0.0 | 2.6 | 0.00 | 0.01 | 0.01 | 73 | 1012.7 |
| 20260503221104 | 60 | 271 | 1.7 | 4.3 | 0.00 | 0.01 | 0.01 | 73 | 1012.8 |
| 20260503220605 | 60 | 269 | 1.7 | 6.1 | 0.00 | 0.01 | 0.01 | 74 | 1012.8 |
| 20260503220104 | 60 | 293 | 2.6 | 6.1 | 0.00 | 0.01 | 0.01 | 74 | 1012.7 |
| 20260503215604 | 60 | 270 | 2.6 | 6.1 | 0.00 | 0.01 | 0.01 | 75 | 1012.8 |
| 20260503214605 | 60 | 294 | 2.6 | 6.1 | 0.00 | 0.01 | 0.01 | 75 | 1013.0 |
| 20260503214104 | 60 | 263 | 2.6 | 5.2 | 0.00 | 0.01 | 0.01 | 76 | 1012.9 |
| 20260503213104 | 60 | 253 | 4.3 | 5.2 | 0.00 | 0.01 | 0.01 | 76 | 1013.0 |
| 20260503212604 | 60 | 254 | 1.7 | 2.6 | 0.00 | 0.01 | 0.01 | 76 | 1013.0 |
| 20260503212104 | 60 | 237 | 1.7 | 6.1 | 0.00 | 0.01 | 0.01 | 76 | 1013.0 |
| 20260503211604 | 60 | 355 | 2.6 | 6.1 | 0.00 | 0.01 | 0.01 | 77 | 1013.0 |
| 20260503211104 | 59 | 236 | 1.7 | 4.3 | 0.00 | 0.01 | 0.01 | 78 | 1013.1 |
| 20260503210604 | 59 | 257 | 0.9 | 4.3 | 0.00 | 0.01 | 0.01 | 78 | 1013.1 |
| 20260503210105 | 59 | 285 | 1.7 | 4.3 | 0.00 | 0.01 | 0.01 | 78 | 1013.0 |
| 20260503205604 | 59 | 260 | 1.7 | 7.0 | 0.00 | 0.01 | 0.01 | 78 | 1013.0 |
| 20260503205104 | 59 | 262 | 2.6 | 7.0 | 0.00 | 0.01 | 0.01 | 78 | 1013.0 |
| 20260503204604 | 59 | 319 | 2.6 | 7.0 | 0.00 | 0.01 | 0.01 | 79 | 1013.0 |
| 20260503204105 | 59 | 301 | 1.7 | 5.2 | 0.00 | 0.01 | 0.01 | 79 | 1013.0 |
| 20260503203604 | 59 | 236 | 1.7 | 6.1 | 0.00 | 0.01 | 0.01 | 78 | 1013.0 |
| 20260503203104 | 59 | 281 | 2.6 | 7.0 | 0.00 | 0.01 | 0.01 | 79 | 1013.0 |
| 20260503202104 | 59 | 269 | 2.6 | 7.8 | 0.00 | 0.01 | 0.01 | 79 | 1013.0 |
| 20260503201606 | 59 | 275 | 2.6 | 5.2 | 0.00 | 0.01 | 0.01 | 80 | 1013.0 |
| 20260503201104 | 59 | 294 | 1.7 | 4.3 | 0.00 | 0.01 | 0.01 | 80 | 1013.0 |
| 20260503200607 | 59 | 278 | 1.7 | 6.1 | 0.00 | 0.01 | 0.01 | 80 | 1013.0 |
| 20260503200105 | 59 | 285 | 1.7 | 6.1 | 0.00 | 0.01 | 0.01 | 80 | 1013.0 |
| 20260503195604 | 58 | 272 | 2.6 | 5.2 | 0.00 | 0.01 | 0.01 | 81 | 1013.1 |
| 20260503194604 | 58 | 282 | 2.6 | 6.1 | 0.00 | 0.01 | 0.01 | 81 | 1013.4 |
| 20260503193604 | 58 | 277 | 2.6 | 6.1 | 0.00 | 0.01 | 0.01 | 82 | 1013.5 |
| 20260503193105 | 58 | 286 | 1.7 | 6.1 | 0.00 | 0.01 | 0.01 | 82 | 1013.5 |
| 20260503192604 | 58 | 299 | 3.5 | 6.1 | 0.00 | 0.01 | 0.01 | 82 | 1013.5 |
| 20260503191604 | 58 | 323 | 0.9 | 5.2 | 0.00 | 0.01 | 0.01 | 84 | 1013.5 |
| 20260503191104 | 58 | 299 | 2.6 | 6.1 | 0.00 | 0.01 | 0.01 | 83 | 1013.6 |
| 20260503190604 | 58 | 264 | 2.6 | 6.1 | 0.00 | 0.01 | 0.01 | 83 | 1013.5 |
| 20260503190104 | 58 | 280 | 2.6 | 6.1 | 0.00 | 0.01 | 0.01 | 84 | 1013.5 |
| 20260503185604 | 58 | 274 | 1.7 | 5.2 | 0.00 | 0.01 | 0.01 | 85 | 1013.5 |
| 20260503185103 | 58 | 271 | 1.7 | 5.2 | 0.00 | 0.01 | 0.01 | 84 | 1013.5 |
| 20260503184604 | 58 | 279 | 1.7 | 5.2 | 0.00 | 0.01 | 0.01 | 85 | 1013.5 |
| 20260503184104 | 57 | 281 | 2.6 | 5.2 | 0.00 | 0.01 | 0.01 | 86 | 1013.5 |
| 20260503183104 | 57 | 308 | 1.7 | 6.1 | 0.00 | 0.01 | 0.01 | 87 | 1013.5 |
| 20260503182605 | 57 | 299 | 2.6 | 6.1 | 0.00 | 0.01 | 0.01 | 87 | 1013.4 |
| 20260503182104 | 57 | 278 | 2.6 | 6.1 | 0.00 | 0.01 | 0.01 | 88 | 1013.4 |
| 20260503181605 | 57 | 275 | 2.6 | 7.0 | 0.00 | 0.01 | 0.01 | 88 | 1013.4 |
| 20260503181104 | 57 | 284 | 3.5 | 7.0 | 0.00 | 0.01 | 0.01 | 89 | 1013.4 |